[[{"header":{"parameterUnit":"m.s-1","parameterCategory":1,"la1":30.2991,"la2":30.254,"lo1":-89.0895,"lo2":-89.0444,"dy":0.0017,"dx":0.0017,"nx":28,"ny":28,"refTime":"2024-08-07T09:00:00:Z","depth":0,"parameterNumber":2,"parameterNumberName":"U-component_of_WINDS"},"data":[0,0,0,0,0,0,0,0,0,0,0,0,0,0,0,0,0,0,0,0,0,0,0,0,0,0,0,0,0,0,0,0,0,0,0,0,0,0,0,0,0,0,0,0,0,0,0,0,0,0,0,0,0,0,0,0,0,0,2.3306,2.3307,0,2.3428,2.343,2.3431,2.3434,2.3433,2.3431,2.343,2.3558,2.3563,2.3568,0,0,0,0,0,0,0,0,0,0,0,0,0,2.3077,2.3081,2.3305,2.3307,2.3309,2.3428,2.343,2.3432,2.3434,2.3433,2.3431,2.3429,2.3556,2.3562,2.3568,0,0,0,0,0,0,0,0,0,0,0,0,0,2.3186,2.3082,2.3305,2.3324,2.3327,2.3428,2.343,2.3432,2.3435,2.3433,2.343,2.3428,2.3555,2.3562,2.3569,2.3659,0,0,2.3591,2.3594,0,0,0,0,0,0,0,0,2.318,2.3194,2.332,2.3323,2.3327,2.3414,2.3396,2.3508,2.3435,2.3394,2.343,2.3427,2.3512,2.3523,2.3551,2.3665,2.3671,2.3592,2.3596,2.3599,2.3601,0,0,0,0,0,0,0,2.3172,2.3189,2.3354,2.3322,2.3326,2.3328,2.3341,2.3418,2.3464,2.3398,2.3398,2.3412,2.3513,2.3544,2.3554,2.3673,2.3591,2.3598,2.3602,2.3605,2.387,2.3872,0,0,0,0,0,0,2.316,2.3183,2.335,2.3358,2.3246,2.3334,2.3348,2.3388,2.3464,2.3473,2.3414,2.3412,2.3532,2.3545,2.3558,2.367,2.3599,2.3606,2.361,2.3867,2.387,2.3873,0,0,0,0,0,0,2.3155,2.3175,2.3345,2.327,2.3292,2.334,2.3385,2.3392,2.3422,2.3476,2.3485,2.3436,2.3531,2.3548,2.3634,2.3675,2.3609,2.3616,2.3864,2.3868,2.3872,2.3894,0,0,0,0,0,0,2.3149,2.3173,2.3207,2.3271,2.3296,2.3418,2.3387,2.3396,2.3434,2.3433,2.3499,2.3508,2.3531,2.3624,2.3642,2.3683,2.3621,2.386,2.3866,2.387,2.389,2.3898,2.3905,0,0,0,0,0,2.3141,2.3209,2.3209,2.3229,2.3339,2.342,2.3435,2.3459,2.3437,2.3473,2.3508,2.3506,2.3667,2.3632,2.3653,2.3697,2.3858,2.3864,2.387,2.3886,2.3896,2.3905,0,0,0,0,0,0,2.3149,2.3217,2.3218,2.3309,2.3359,2.3421,2.3466,2.3469,2.3526,2.3522,2.355,2.3565,2.3651,2.3683,2.3643,2.379,2.376,2.3771,2.3766,2.3776,2.3784,2.3774,2.3627,0,0,0,0,0,2.3161,2.322,2.3277,2.3352,2.3377,2.3417,2.3453,2.3467,2.3521,2.3542,2.3583,2.3636,2.3698,2.3739,2.3799,2.3895,2.391,2.3936,2.3943,2.3949,2.3958,2.4012,2.4025,2.3893,2.3893,2.3893,0,0,2.3187,2.3232,2.3268,2.3355,2.3395,2.3457,2.3435,2.3501,2.3547,2.3552,2.3636,2.3668,2.3729,2.382,2.3863,2.3849,2.3998,2.3957,2.3962,2.3967,2.402,2.4032,2.4043,2.3897,2.3896,2.3895,0,0,2.3267,2.3306,2.3373,2.3414,2.3475,2.3502,2.3518,2.358,2.3601,2.3686,2.3691,2.3748,2.3855,2.3898,2.3934,2.4031,2.4033,2.4051,2.4091,2.4144,2.4154,2.4163,2.4199,2.4211,2.4059,2.4059,2.4059,0,2.3292,2.3384,2.3407,2.3474,2.3513,2.3519,2.3588,2.3627,2.3706,2.3733,2.3717,2.3852,2.3893,2.3995,2.4019,2.4048,2.4068,2.4043,2.415,2.416,2.4169,2.4204,2.4217,2.4061,2.4061,2.406,2.406,0,2.3412,2.3476,2.3523,2.3598,2.3642,2.371,2.3745,2.3787,2.3798,2.3826,2.3913,2.3963,2.4035,2.406,2.4071,2.4165,2.4155,2.4144,2.4115,2.4183,2.4216,2.4229,2.4063,2.4063,2.4062,2.4062,0,0,2.3499,2.3587,2.3604,2.3638,2.3707,2.3758,2.3826,2.3895,2.3932,2.3986,2.4045,2.4136,2.4127,2.4168,2.4185,2.4231,2.4306,2.4215,2.4217,2.4231,2.4414,2.4421,2.4436,2.4307,2.431,2.4312,2.4409,0,2.3586,2.3707,2.3731,2.3836,2.3896,2.3905,2.3965,2.4014,2.4043,2.41,2.4132,2.4197,2.418,2.4205,2.4251,2.4287,2.4343,2.4281,2.4364,2.4366,2.4348,2.4453,2.4461,2.4549,2.4422,2.4424,2.4425,0,2.3704,2.376,2.3871,2.3933,2.3959,2.4012,2.4079,2.4132,2.4189,2.4207,2.4254,2.4266,2.4339,2.4306,2.4408,2.4365,2.4401,2.4424,2.4429,2.4437,2.44,2.4465,2.4578,2.4591,2.4446,2.4444,2.4443,0,2.3757,2.3861,2.3941,2.397,2.4044,2.4082,2.4115,2.4169,2.421,2.4268,2.4295,2.4362,2.4398,2.445,2.448,2.4454,2.4581,2.455,2.4599,2.4598,2.4625,2.4623,2.4745,2.4647,2.4647,2.4647,2.4647,0,2.3852,2.3919,2.3966,2.4015,2.4092,2.412,2.4196,2.4228,2.4277,2.4334,2.4346,2.4399,2.4436,2.4495,2.4519,2.4601,2.4617,2.4635,2.4641,2.4634,2.4632,2.4658,2.4652,2.4651,2.465,2.4649,2.4648,0,2.3924,2.3958,2.4046,2.4109,2.4126,2.418,2.4235,2.4284,2.4313,2.4385,2.4404,2.4451,2.4521,2.4557,2.4644,2.4661,2.4753,2.4755,2.4734,2.4736,2.4782,2.4778,2.4926,2.4948,2.4835,2.4836,2.4837,0,2.3982,2.4034,2.4103,2.4142,2.4175,2.4237,2.4279,2.4309,2.4352,2.4421,2.4462,2.4533,2.4591,2.4704,2.4747,2.4814,2.4818,2.4866,2.4828,2.4821,2.482,2.4816,2.4822,2.4872,2.4873,2.4874,2.4875,0,2.4082,2.4097,2.4155,2.4221,2.427,2.4323,2.4375,2.4406,2.4445,2.4493,2.4565,2.461,2.47,2.4771,2.4842,2.4877,2.4883,2.4886,2.4901,2.4895,2.4881,2.489,2.4752,2.4883,2.4882,2.4881,2.4881,2.4881,2.415,2.4197,2.4253,2.4318,2.4361,2.441,2.4459,2.4495,2.4555,2.463,2.4645,2.4721,2.4779,2.4875,2.4912,2.4974,2.4964,2.4985,2.499,2.4995,2.4998,2.4871,2.4987,2.4987,2.4986,2.4986,2.4986,0,2.4251,2.4288,2.4348,2.442,2.4472,2.4473,2.4531,2.4575,2.4642,2.4694,2.4752,2.4835,2.4904,2.4953,2.5023,2.5063,2.5068,2.5081,2.5078,2.5087,2.5003,2.4983,2.5076,2.5076,2.5076,2.5076,2.5076,2.5076,2.431,2.439,2.4411,2.4514,2.455,2.4624,2.4658,2.4704,2.4746,2.4838,2.4895,2.4926,2.4978,2.5053,2.5117,2.513,2.5156,2.5169,2.5181,2.5102,2.5092,2.5083,2.5065,2.5174,2.5174,2.526,2.5261,2.5262]},{"header":{"parameterUnit":"m.s-1","parameterCategory":1,"la1":30.2991,"la2":30.254,"lo1":-89.0895,"lo2":-89.0444,"dy":0.0017,"dx":0.0017,"nx":28,"ny":28,"refTime":"2024-08-07T09:00:00:Z","depth":0,"parameterNumber":3,"parameterNumberName":"V-component_of_WINDS"},"data":[0,0,0,0,0,0,0,0,0,0,0,0,0,0,0,0,0,0,0,0,0,0,0,0,0,0,0,0,0,0,0,0,0,0,0,0,0,0,0,0,0,0,0,0,0,0,0,0,0,0,0,0,0,0,0,0,0,0,-2.5498,-2.5498,0,-2.5578,-2.5579,-2.558,-2.5565,-2.5563,-2.5562,-2.5561,-2.5642,-2.5646,-2.5649,0,0,0,0,0,0,0,0,0,0,0,0,0,-2.533,-2.5333,-2.5498,-2.5499,-2.55,-2.5578,-2.5579,-2.558,-2.5565,-2.5563,-2.5562,-2.556,-2.5641,-2.5645,-2.565,0,0,0,0,0,0,0,0,0,0,0,0,0,-2.5406,-2.5334,-2.5497,-2.5501,-2.5503,-2.5578,-2.5579,-2.5581,-2.5565,-2.5563,-2.5561,-2.5559,-2.564,-2.5645,-2.565,-2.5726,0,0,-2.5666,-2.5669,0,0,0,0,0,0,0,0,-2.5401,-2.5412,-2.55,-2.5501,-2.5503,-2.5559,-2.555,-2.5629,-2.5566,-2.5542,-2.5561,-2.5558,-2.5616,-2.5624,-2.5643,-2.573,-2.5734,-2.5667,-2.567,-2.5672,-2.5674,0,0,0,0,0,0,0,-2.5396,-2.5408,-2.5529,-2.5501,-2.5503,-2.5499,-2.5507,-2.5565,-2.559,-2.5544,-2.5543,-2.5552,-2.5617,-2.5638,-2.5645,-2.5735,-2.5667,-2.5671,-2.5675,-2.5677,-2.5888,-2.589,0,0,0,0,0,0,-2.539,-2.5404,-2.5527,-2.5532,-2.5446,-2.5504,-2.5513,-2.5543,-2.559,-2.5594,-2.5554,-2.5551,-2.563,-2.5639,-2.5648,-2.574,-2.5672,-2.5677,-2.568,-2.5885,-2.5888,-2.5891,0,0,0,0,0,0,-2.5386,-2.5401,-2.5524,-2.5468,-2.5483,-2.5509,-2.5543,-2.5546,-2.5567,-2.5598,-2.5602,-2.5572,-2.5629,-2.5641,-2.5707,-2.5742,-2.568,-2.5684,-2.5882,-2.5886,-2.5889,-2.5924,0,0,0,0,0,0,-2.5381,-2.54,-2.5429,-2.5469,-2.5486,-2.5581,-2.5545,-2.5549,-2.5577,-2.5574,-2.5615,-2.562,-2.5628,-2.5699,-2.5712,-2.5749,-2.5689,-2.5879,-2.5884,-2.5888,-2.592,-2.5928,-2.5936,0,0,0,0,0,-2.5376,-2.5435,-2.5431,-2.5445,-2.5523,-2.5584,-2.5594,-2.5602,-2.558,-2.5609,-2.5628,-2.5618,-2.5737,-2.5706,-2.5721,-2.5759,-2.5877,-2.5883,-2.5888,-2.5916,-2.5927,-2.5935,0,0,0,0,0,0,-2.5399,-2.5441,-2.5436,-2.551,-2.5544,-2.5581,-2.5618,-2.5613,-2.5653,-2.5649,-2.5658,-2.5667,-2.5735,-2.5753,-2.5719,-2.5835,-2.5803,-2.5812,-2.582,-2.583,-2.5838,-2.5832,-2.5693,0,0,0,0,0,-2.5413,-2.5459,-2.5492,-2.5555,-2.5572,-2.5592,-2.5619,-2.5623,-2.5657,-2.5671,-2.5695,-2.5729,-2.5774,-2.5803,-2.5846,-2.5923,-2.5931,-2.5956,-2.5964,-2.5971,-2.5978,-2.6019,-2.6031,-2.5909,-2.5909,-2.5908,0,0,-2.5442,-2.547,-2.5499,-2.556,-2.5586,-2.5633,-2.5604,-2.5655,-2.569,-2.5679,-2.5743,-2.5762,-2.58,-2.5872,-2.5905,-2.589,-2.6013,-2.5977,-2.5982,-2.5986,-2.6026,-2.6038,-2.6048,-2.5912,-2.5912,-2.5911,0,0,-2.5519,-2.5545,-2.56,-2.5627,-2.5667,-2.568,-2.5693,-2.5732,-2.5744,-2.5808,-2.5801,-2.5843,-2.5919,-2.5947,-2.5971,-2.6059,-2.6051,-2.6072,-2.6114,-2.6154,-2.6164,-2.6172,-2.6203,-2.6214,-2.6079,-2.608,-2.608,0,-2.555,-2.562,-2.5629,-2.568,-2.5707,-2.57,-2.5755,-2.5781,-2.5833,-2.5852,-2.5835,-2.5931,-2.5956,-2.6034,-2.6055,-2.6075,-2.609,-2.6067,-2.6162,-2.617,-2.6178,-2.6208,-2.622,-2.6082,-2.6082,-2.6081,-2.6081,0,-2.5656,-2.5705,-2.5744,-2.5795,-2.5827,-2.588,-2.5896,-2.5927,-2.5928,-2.5943,-2.6009,-2.6039,-2.6088,-2.6107,-2.6108,-2.6185,-2.6175,-2.616,-2.6128,-2.6192,-2.622,-2.6232,-2.6085,-2.6084,-2.6084,-2.6083,0,0,-2.575,-2.5804,-2.5819,-2.5841,-2.5885,-2.5923,-2.5976,-2.6024,-2.605,-2.6086,-2.613,-2.6196,-2.6182,-2.6209,-2.6214,-2.625,-2.6317,-2.623,-2.6231,-2.6245,-2.6403,-2.6413,-2.6426,-2.6312,-2.6314,-2.6316,-2.6399,0,-2.583,-2.5923,-2.5933,-2.6016,-2.6061,-2.6055,-2.6101,-2.6133,-2.6148,-2.6189,-2.6206,-2.6252,-2.623,-2.6247,-2.6282,-2.6301,-2.6348,-2.6295,-2.6353,-2.6355,-2.6343,-2.6441,-2.6452,-2.653,-2.641,-2.6412,-2.6413,0,-2.5937,-2.5976,-2.6064,-2.6101,-2.612,-2.6162,-2.6206,-2.6245,-2.6281,-2.6289,-2.632,-2.632,-2.6374,-2.6341,-2.6416,-2.6379,-2.6404,-2.6417,-2.642,-2.6425,-2.6388,-2.6448,-2.6555,-2.6566,-2.6431,-2.6429,-2.6428,0,-2.5996,-2.6071,-2.6133,-2.6152,-2.6198,-2.6227,-2.6247,-2.6281,-2.6309,-2.6348,-2.6366,-2.6411,-2.6435,-2.647,-2.6481,-2.6456,-2.6556,-2.6523,-2.6564,-2.6564,-2.6585,-2.6583,-2.6696,-2.6601,-2.6601,-2.6601,-2.6601,0,-2.6084,-2.6138,-2.616,-2.6198,-2.6258,-2.6268,-2.6327,-2.6346,-2.6376,-2.6418,-2.6415,-2.6454,-2.6468,-2.6509,-2.6519,-2.6579,-2.6591,-2.6599,-2.6601,-2.6599,-2.6598,-2.6615,-2.6609,-2.6604,-2.6603,-2.6603,-2.6602,0,-2.616,-2.6177,-2.6244,-2.6281,-2.6292,-2.6335,-2.6367,-2.6404,-2.6418,-2.6471,-2.6484,-2.6508,-2.6556,-2.6572,-2.663,-2.6637,-2.6707,-2.6704,-2.6695,-2.6695,-2.6735,-2.6731,-2.6862,-2.6879,-2.6773,-2.6774,-2.6775,0,-2.6215,-2.6257,-2.6299,-2.6326,-2.6348,-2.6392,-2.6421,-2.6433,-2.6462,-2.6506,-2.6538,-2.6586,-2.6625,-2.6703,-2.6725,-2.677,-2.6768,-2.6811,-2.6775,-2.6772,-2.6768,-2.6766,-2.677,-2.6818,-2.6819,-2.682,-2.682,0,-2.6312,-2.6318,-2.6359,-2.6404,-2.6438,-2.6474,-2.6508,-2.6531,-2.6548,-2.6581,-2.6631,-2.6661,-2.6721,-2.6769,-2.6815,-2.6835,-2.6831,-2.6832,-2.6843,-2.6842,-2.6834,-2.6839,-2.6713,-2.6828,-2.6828,-2.6827,-2.6827,-2.6826,-2.6379,-2.6415,-2.645,-2.6496,-2.6524,-2.6556,-2.6592,-2.6612,-2.6653,-2.6703,-2.6707,-2.6761,-2.6796,-2.6856,-2.6879,-2.6921,-2.6909,-2.6926,-2.693,-2.6934,-2.6937,-2.6828,-2.693,-2.6929,-2.6929,-2.6929,-2.6929,0,-2.6475,-2.6497,-2.6539,-2.6587,-2.6624,-2.6617,-2.6654,-2.6685,-2.6732,-2.6765,-2.6804,-2.6861,-2.6907,-2.6933,-2.6979,-2.7008,-2.7007,-2.702,-2.7017,-2.7022,-2.6946,-2.6931,-2.702,-2.702,-2.702,-2.702,-2.702,-2.7019,-2.6529,-2.659,-2.66,-2.6674,-2.6696,-2.6749,-2.6771,-2.6801,-2.6827,-2.6891,-2.6929,-2.6946,-2.6976,-2.7024,-2.7066,-2.7073,-2.709,-2.7104,-2.7109,-2.7037,-2.7028,-2.7019,-2.7005,-2.7108,-2.7108,-2.7182,-2.7183,-2.7183]}]]